Location: Casteau
(50.5142°N, 4.0161°E)
Time: 05:52:22
(UTC+00:00)

Vanguard 1 Rocket - Pass Details

Date: 04 August 2021
Orbit: 650 x 4226 km, 34.3° (Epoch: 21 September)

Event Time Altitude Azimuth Distance (km) Brightness Sun altitude
Rises 07:59:07 0° 218° (SW) 8,432 12.1 33.5°
Reaches altitude 10° 08:06:22 10° 210° (SSW) 7,206 11.9 34.6°
Maximum altitude 08:24:28 31° 159° (SSE) 4,489 11.8 37.3°
Drops below altitude 10° 08:36:18 10° 104° (ESE) 4,735 12.3 39.1°
Sets 08:39:47 0° 94° (E) 5,298 12.1 39.6°
